RYR6VH LFBO-LHBP

Flight info

Callsign RYR6VH
Flight time N/A
Altitude 38000
Route MEN DCT NINUN DCT LATAM DCT ROMAM DCT ETIDO DCT NEDRU DCT RILIP DCT EMMEF DCT LAPRI DCT MOGBO DCT PEVAL DCT KOTOR DCT KOPRY DCT ULZAK
Aircraft B38M/M-SDE1FGHILORVWXY/HB1

Departure

Time 2026-05-05 07:48
Airport Toulouse-Blagnac Airport (LFBO)

Arrival

Time N/A
Airport Budapest Liszt Ferenc International Airport (LHBP)
Time Latitude Longitude Altitude Speed Heading
2026-05-05 07:28 43.62765 1.37700 489 ft 0 kts 53°
2026-05-05 07:40 43.62757 1.37685 482 ft 4 kts 53°
2026-05-05 07:40 43.62744 1.37661 488 ft 4 kts 57°
2026-05-05 07:41 43.62738 1.37633 485 ft 4 kts 117°
2026-05-05 07:41 43.62755 1.37612 488 ft 3 kts 143°
2026-05-05 07:41 43.62758 1.37608 489 ft 1 kts 143°
2026-05-05 07:43 43.62756 1.37610 488 ft 2 kts 143°
2026-05-05 07:43 43.62734 1.37629 485 ft 5 kts 160°
2026-05-05 07:43 43.62701 1.37609 492 ft 6 kts 230°
2026-05-05 07:44 43.62668 1.37550 489 ft 9 kts 237°
2026-05-05 07:44 43.62631 1.37468 495 ft 11 kts 237°
2026-05-05 07:44 43.62582 1.37376 492 ft 11 kts 233°
2026-05-05 07:44 43.62512 1.37350 494 ft 12 kts 153°
2026-05-05 07:45 43.62438 1.37425 490 ft 14 kts 143°
2026-05-05 07:45 43.62351 1.37515 496 ft 17 kts 143°
2026-05-05 07:45 43.62252 1.37617 493 ft 19 kts 143°
2026-05-05 07:45 43.62142 1.37731 492 ft 21 kts 143°
2026-05-05 07:46 43.62021 1.37855 490 ft 23 kts 143°
2026-05-05 07:46 43.61889 1.37991 489 ft 25 kts 143°
2026-05-05 07:46 43.61760 1.38126 496 ft 22 kts 143°
2026-05-05 07:46 43.61661 1.38166 489 ft 13 kts 209°
2026-05-05 07:47 43.61601 1.38067 495 ft 14 kts 240°
2026-05-05 07:47 43.61602 1.37987 488 ft 7 kts 309°
2026-05-05 07:47 43.61616 1.37969 495 ft 0 kts 322°
2026-05-05 07:47 43.61631 1.37953 489 ft 21 kts 322°
2026-05-05 07:48 43.61957 1.37613 496 ft 96 kts 323°
2026-05-05 07:48 43.62667 1.36879 494 ft 156 kts 322°
2026-05-05 07:48 43.63595 1.35907 1002 ft 166 kts 320°
2026-05-05 07:48 43.64474 1.34961 1967 ft 160 kts 320°
2026-05-05 07:49 43.65382 1.33958 2557 ft 176 kts 320°
2026-05-05 07:49 43.66398 1.32838 3008 ft 199 kts 320°
2026-05-05 07:49 43.67552 1.31565 3511 ft 222 kts 320°
2026-05-05 07:49 43.68879 1.30339 4043 ft 244 kts 335°